Temp
13 13 13 13 13 13 13 13 13 13 13 13 13 13 13 14 14 14 14 14 14 14 14 14 14 14 14 14 14 14 14 14 14 14 13 13 13 13 13 13 13 13 13 13 13 13 13 13 13 13 13 12 12 12 12 12 12 12 11 11 11 11 11 11 11 10 10 10 10
13 13 13 13 13 13 13 13 13 13 13 13 13 13 13 14 14 14 14 14 14 14 14 14 14 14 14 14 14 14 14 14 14 14 14 14 13 13 13 13 13 13 13 13 13 13 13 13 13 13 13 13 12 12 12 12 12 11 11 11 11 11 11 11 10 10 10 10 10
13 13 13 13 13 13 13 13 13 13 13 13 13 13 13 14 14 14 14 14 14 14 14 14 14 14 14 14 14 14 14 14 14 14 14 14 13 13 13 13 13 13 13 12 12 12 12 13 13 13 13 12 12 12 12 12 12 11 11 11 11 11 10 10 10 10 10 10 10
12 12 12 12 13 13 13 13 13 13 13 13 13 13 13 13 13 13 13 13 13 13 13 13 13 14 14 14 14 14 14 14 14 14 13 13 13 13 13 13 13 12 12 12 12 12 12 12 12 12 12 12 12 12 12 12 12 11 11 11 11 10 10 10 10 10 10 10 10
12 12 12 12 12 12 13 13 13 13 13 13 13 13 13 13 13 13 13 13 13 13 13 13 13 13 13 13 13 13 13 14 14 14 13 13 13 13 13 12 12 12 12 12 12 12 12 12 12 12 12 12 12 12 12 12 11 11 11 11 11 10 10 10 10 10 10 10 10
12 12 12 12 12 12 13 13 13 13 13 13 13 12 12 12 12 12 13 13 13 13 13 13 13 13 13 13 13 13 13 13 13 13 13 13 13 13 12 12 12 12 12 12 12 12 12 12 12 12 12 11 11 12 12 11 11 11 11 11 10 10 10 10 10 10 10 10 10
12 12 12 12 12 12 12 12 12 12 12 12 12 12 12 12 12 12 12 12 12 12 12 12 12 12 12 12 13 13 13 13 13 13 13 13 13 12 12 12 11 11 11 11 12 12 12 12 12 12 11 11 11 11 11 11 11 11 11 11 10 10 10 10 10 10 10 10 10
12 12 12 12 12 12 12 12 12 12 12 12 12 12 12 12 12 12 12 12 12 12 12 12 12 12 12 12 12 12 12 12 13 13 13 13 12 12 12 11 11 11 11 11 11 12 12 12 12 11 11 11 11 11 11 11 11 11 11 11 10 10 10 10 10 10 10 10 10
12 12 12 12 12 12 12 12 12 12 12 12 12 11 11 11 11 11 11 11 11 11 11 11 11 11 11 11 11 12 12 12 12 12 12 12 12 12 11 11 11 11 11 11 11 11 11 11 11 11 11 11 11 11 11 11 10 10 10 10 10 10 10 10 10 10 10 10 10
11 11 11 11 11 11 11 11 11 11 11 11 11 11 11 11 11 11 11 11 11 11 11 11 11 11 11 11 11 11 11 11 12 12 12 12 12 12 11 11 11 11 11 11 11 11 11 11 11 11 11 11 11 11 11 11 10 10 10 10 10 10 10 10 10 10 10 10 9
11 11 11 11 11 11 11 11 11 11 11 11 11 11 11 11 11 11 11 11 11 11 11 11 11 11 11 11 11 11 11 11 11 12 12 12 12 11 11 11 11 11 11 11 11 11 11 11 11 11 11 11 11 11 11 10 10 10 10 10 10 10 9 9 9 10 10 9 9
10 10 10 10 10 10 10 10 10 11 11 11 11 10 10 10 10 10 10 10 10 10 10 10 10 10 10 11 11 11 11 11 11 11 11 11 11 11 11 11 11 11 11 11 11 11 11 11 11 11 11 11 10 10 10 10 10 10 10 10 9 9 9 9 9 9 9 9 9
10 10 10 10 10 10 10 10 10 10 10 10 10 10 10 10 10 10 10 10 10 10 10 10 10 10 10 10 10 11 11 11 11 11 11 11 11 11 11 11 11 11 11 10 10 10 11 11 11 11 11 10 10 10 10 10 10 10 10 10 9 9 9 9 9 9 9 9 9
9 9 9 9 9 9 9 9 9 9 9 9 9 9 9 9 9 10 10 10 10 10 10 10 10 10 10 10 10 10 10 11 11 11 11 11 11 10 10 10 10 10 10 10 10 10 11 11 11 11 11 10 10 10 10 10 10 10 9 9 9 9 9 9 9 9 9 9 9
9 9 9 9 9 9 9 9 9 9 9 9 9 9 9 9 9 9 9 9 9 9 9 9 9 9 10 10 10 10 10 10 10 10 10 10 10 10 10 10 10 10 10 10 10 10 10 10 10 10 10 10 10 10 10 10 10 9 9 9 9 9 9 9 9 9 9 9 9
8 8 8 8 8 8 8 8 8 8 8 8 8 8 8 9 9 9 9 9 9 9 9 9 9 9 9 9 9 9 10 10 10 10 10 10 9 9 9 9 9 9 9 9 9 9 10 10 10 10 10 10 10 9 9 9 9 9 9 9 9 8 9 9 9 9 8 8 8
8 8 8 8 8 8 8 7 7 7 7 8 8 8 8 8 8 8 8 8 8 8 8 8 8 8 8 9 9 9 9 9 9 9 9 9 8 8 8 8 8 8 8 8 9 9 9 9 9 9 9 9 9 9 9 9 9 9 9 9 9 9 9 8 8 8 8 8 8
7 7 7 7 7 7 7 6 6 7 7 7 7 7 7 7 8 8 8 8 8 8 8 8 8 8 8 8 8 8 8 8 8 8 7 7 8 8 8 8 8 8 8 8 9 9 9 9 9 9 9 9 8 9 9 9 9 9 9 9 8 8 8 8 8 8 8 8 8
6 6 6 6 6 6 6 6 6 6 6 7 7 7 7 7 7 7 7 7 7 7 8 8 8 8 7 7 7 7 7 7 7 7 7 7 7 7 8 8 8 8 8 9 9 9 9 9 9 8 8 8 8 8 9 9 9 9 8 8 8 8 8 8 8 8 8 7 7
5 6 6 5 5 5 5 5 6 6 6 6 6 6 6 6 6 6 7 7 6 7 7 7 7 7 7 7 7 7 7 7 7 7 7 7 7 7 7 7 7 7 8 8 9 9 8 8 8 8 8 8 8 8 8 8 8 8 8 8 8 8 8 8 7 7 7 7 7
5 5 5 5 5 5 5 5 5 5 5 5 5 5 6 5 6 6 6 6 6 7 7 7 7 7 7 7 7 7 7 7 7 7 7 7 7 7 7 7 7 8 8 8 8 8 8 8 8 8 8 8 8 8 8 8 8 8 8 8 7 7 7 7 7 7 7 6 6
4 4 4 4 4 5 5 5 5 5 5 5 5 5 5 5 6 6 6 6 7 7 6 7 7 7 7 7 7 7 7 7 7 7 7 7 8 8 8 7 7 7 7 7 7 7 7 8 8 8 8 8 8 8 8 8 8 8 7 7 7 7 7 7 6 6 6 6 6
4 4 4 4 4 5 5 5 5 5 4 5 5 5 5 5 5 5 6 6 6 6 6 6 6 7 7 7 7 7 7 7 7 7 7 7 7 7 7 7 7 7 7 7 7 7 7 7 7 7 7 7 7 7 7 7 7 7 7 7 7 7 6 6 6 6 6 6 6
3 4 4 4 4 4 4 4 4 4 4 4 4 4 4 5 5 5 5 6 6 6 6 6 6 6 6 6 6 6 6 6 6 6 6 6 6 6 6 6 6 6 7 7 7 7 7 7 7 7 7 7 7 7 7 7 7 7 7 7 6 6 6 6 6 6 6 5 5
3 4 4 4 4 4 4 4 4 4 4 4 4 4 4 4 4 4 5 5 5 6 6 6 6 6 6 6 6 6 6 6 6 6 6 6 6 6 6 6 6 6 6 6 6 6 6 6 6 7 7 7 7 7 7 7 7 6 6 6 6 6 6 6 6 6 5 5 5
3 3 4 3 3 3 4 3 3 3 3 3 3 3 3 4 4 4 4 5 5 5 6 6 6 6 6 6 6 6 6 6 6 6 6 5 5 6 6 6 6 6 6 6 6 6 6 6 6 7 7 7 7 7 7 6 6 6 6 6 6 6 6 6 5 5 5 5 4
3 3 3 3 3 3 3 3 3 3 3 3 3 3 3 3 4 4 4 4 5 5 5 5 6 6 6 6 6 5 5 5 5 5 5 5 6 6 6 6 6 6 6 6 6 6 7 7 7 7 7 7 6 6 6 6 6 6 6 6 6 6 5 5 5 5 4 4 4
3 3 3 3 3 3 3 3 3 3 3 3 3 3 3 3 4 4 4 4 4 4 4 5 5 5 5 5 5 5 5 5 5 5 5 6 6 6 6 6 6 6 6 6 7 7 7 7 7 6 6 6 6 6 6 6 6 5 5 5 5 5 5 4 4 4 4 4 3
3 3 3 3 3 4 4 4 4 4 4 4 4 3 3 4 4 3 3 4 4 4 4 4 4 5 5 5 5 5 5 5 5 5 6 6 6 6 6 6 6 6 6 7 7 7 6 6 6 6 6 6 6 5 5 5 5 5 5 5 5 4 4 4 4 3 3 3 3
3 3 3 3 3 4 4 4 4 4 4 4 4 4 4 4 4 4 3 3 3 3 4 4 4 5 5 5 5 5 5 5 6 6 6 6 6 7 7 7 7 6 6 6 6 6 6 6 6 6 6 5 5 5 5 5 5 4 4 4 4 4 4 3 3 3 3 3 3
3 3 3 3 3 3 4 4 4 4 4 4 4 4 4 4 4 4 4 4 4 4 4 4 5 5 5 5 5 5 5 6 6 6 6 6 6 7 7 7 6 6 6 6 6 6 6 5 5 5 5 5 5 5 5 4 4 4 4 4 3 3 3 3 3 3 3 3 3
3 3 3 3 3 3 4 4 3 3 4 4 4 4 4 4 4 4 4 4 4 4 4 5 5 5 5 5 5 5 5 6 6 6 6 6 6 6 6 6 6 6 6 6 6 5 5 5 5 5 5 4 4 4 4 4 4 3 3 3 3 3 3 3 3 3 3 2 2
3 3 3 3 3 3 3 3 3 3 4 4 4 4 4 4 4 4 4 4 4 4 4 5 5 5 5 5 5 5 5 5 6 5 5 5 5 6 6 6 6 6 5 5 5 5 5 5 4 4 4 4 4 4 3 3 3 3 3 3 3 3 3 3 3 3 2 2 2
3 3 3 3 3 3 3 3 3 3 4 4 4 4 4 5 5 5 4 4 4 4 5 5 5 5 5 5 5 5 5 5 5 5 5 5 5 5 5 5 5 5 5 5 5 4 4 4 4 4 4 4 3 3 3 3 3 2 2 2 2 3 3 3 3 2 2 2 2
3 3 3 3 3 3 3 3 3 3 4 4 4 5 5 5 5 5 4 4 4 5 5 5 5 5 5 5 5 5 5 5 5 5 5 4 4 4 4 5 4 4 4 4 4 4 4 4 4 3 3 3 3 3 2 2 2 2 2 2 2 2 2 2 2 2 2 2 2
3 3 3 3 3 3 3 3 3 3 3 4 4 4 4 4 4 4 4 4 4 5 5 5 5 5 5 5 5 5 5 5 5 5 4 4 4 4 4 4 4 4 4 4 3 3 3 3 3 3 3 3 2 2 2 2 2 2 2 2 2 2 2 2 2 2 2 2 2
3 3 3 3 3 3 3 3 3 3 3 3 3 3 3 3 4 4 4 4 4 5 5 5 5 5 5 5 4 4 4 4 4 4 4 4 3 3 3 3 3 3 3 3 3 3 3 3 2 2 2 2 2 2 2 2 2 2 2 2 2 2 2 2 2 2 2 2 2
3 3 3 3 3 3 3 3 3 3 3 3 2 2 2 3 3 3 3 4 4 5 5 5 5 5 4 4 4 3 3 3 3 3 3 3 3 3 2 2 2 2 2 2 2 2 2 2 2 2 2 2 2 2 2 2 2 2 2 2 2 2 2 2 2 2 2 2 2
3 3 3 3 3 3 3 3 3 3 3 3 3 2 2 3 3 3 3 3 3 4 4 5 5 4 3 3 3 3 3 3 3 3 3 2 2 2 2 2 2 2 2 2 2 2 2 2 2 2 2 2 2 2 2 2 2 2 2 2 2 2 2 2 2 2 2 2 1
3 3 3 3 3 3 3 3 3 3 3 3 3 3 3 3 3 3 3 3 3 3 3 4 3 3 3 3 2 2 2 2 2 2 2 2 2 2 2 1 2 2 2 2 2 2 2 2 2 2 2 2 2 2 2 2 2 2 3 2 2 2 2 2 2 2 1 1 1
3 3 3 3 3 3 3 3 3 3 3 3 3 3 3 3 3 3 3 3 3 3 2 3 2 2 2 2 2 2 2 2 2 2 2 2 2 1 1 1 1 1 1 1 1 2 2 2 2 2 2 2 2 2 2 2 3 3 3 2 2 2 2 2 1 1 1 1 0
Height
1512 1512 1513 1513 1513 1513 1514 1514 1514 1514 1514 1514 1514 1514 1514 1514 1515 1515 1515 1515 1515 1515 1515 1516 1516 1516 1516 1517 1517 1517 1517 1518 1518 1518 1518 1519 1519 1519 1519 1520 1520 1520 1520 1520 1520 1521 1521 1522 1522 1523 1523 1523 1524 1524 1525 1525 1524 1524 1524 1523 1524 1524 1525 1525 1525 1525 1525 1526 1526
1510 1511 1511 1511 1512 1512 1512 1512 1512 1513 1513 1513 1513 1513 1513 1513 1513 1513 1513 1513 1513 1513 1513 1514 1514 1514 1514 1514 1514 1514 1514 1515 1515 1515 1515 1516 1516 1516 1517 1517 1517 1517 1518 1518 1518 1519 1519 1520 1520 1520 1521 1521 1522 1522 1523 1524 1524 1523 1522 1522 1523 1523 1523 1523 1523 1523 1524 1525 1526
1509 1509 1510 1510 1510 1510 1511 1511 1511 1511 1511 1511 1511 1511 1511 1511 1511 1511 1511 1512 1512 1512 1512 1512 1512 1512 1512 1512 1512 1512 1512 1513 1513 1513 1513 1514 1514 1514 1514 1514 1515 1515 1515 1516 1516 1517 1517 1518 1518 1519 1519 1519 1520 1520 1521 1521 1521 1521 1521 1522 1522 1522 1521 1521 1522 1522 1523 1524 1524
1508 1508 1508 1509 1509 1509 1509 1509 1509 1509 1510 1510 1510 1510 1510 1509 1510 1510 1510 1510 1510 1510 1510 1510 1510 1510 1510 1510 1510 1510 1510 1511 1511 1511 1511 1512 1512 1512 1512 1513 1513 1513 1514 1514 1514 1515 1515 1516 1516 1517 1517 1518 1518 1519 1519 1520 1519 1519 1520 1520 1520 1520 1520 1520 1521 1522 1522 1523 1523
1506 1507 1507 1507 1507 1507 1508 1508 1508 1508 1508 1508 1508 1508 1508 1508 1508 1508 1508 1508 1508 1508 1508 1508 1508 1508 1509 1509 1509 1509 1509 1509 1509 1509 1509 1509 1510 1510 1511 1511 1511 1512 1512 1513 1513 1514 1514 1514 1514 1515 1515 1516 1517 1517 1518 1518 1517 1517 1518 1519 1519 1519 1519 1519 1520 1520 1521 1521 1521
1505 1505 1505 1505 1505 1506 1506 1506 1506 1506 1506 1506 1506 1506 1506 1506 1506 1506 1506 1506 1506 1506 1506 1506 1506 1506 1506 1507 1507 1507 1507 1507 1507 1507 1508 1508 1508 1509 1509 1509 1510 1510 1510 1511 1511 1512 1512 1513 1513 1513 1514 1514 1515 1516 1516 1516 1516 1516 1517 1517 1517 1517 1517 1518 1518 1519 1519 1519 1520
1504 1504 1504 1504 1504 1504 1504 1504 1504 1504 1504 1504 1504 1504 1504 1504 1504 1504 1504 1504 1504 1504 1504 1504 1504 1504 1505 1505 1505 1505 1505 1505 1505 1505 1506 1506 1506 1507 1507 1508 1508 1509 1509 1509 1510 1510 1511 1511 1511 1512 1513 1513 1514 1514 1514 1514 1514 1515 1515 1515 1515 1515 1516 1516 1517 1518 1518 1518 1519
1502 1502 1502 1502 1502 1503 1503 1503 1503 1503 1503 1503 1503 1503 1503 1503 1503 1503 1503 1503 1503 1503 1503 1503 1503 1503 1503 1503 1503 1503 1503 1504 1504 1504 1504 1504 1504 1505 1505 1506 1507 1507 1508 1508 1509 1509 1509 1510 1510 1511 1511 1512 1512 1513 1513 1512 1512 1513 1513 1514 1514 1514 1514 1515 1516 1516 1517 1517 1517
1500 1500 1500 1501 1501 1501 1501 1501 1501 1501 1501 1501 1501 1501 1501 1501 1501 1501 1501 1501 1501 1501 1501 1501 1501 1501 1501 1501 1501 1501 1502 1502 1502 1502 1502 1503 1503 1503 1504 1504 1505 1506 1506 1507 1507 1508 1508 1509 1509 1509 1510 1510 1510 1511 1511 1511 1511 1511 1512 1512 1513 1513 1514 1514 1514 1515 1515 1516 1516
1499 1499 1499 1499 1499 1499 1499 1499 1499 1499 1499 1499 1499 1499 1499 1500 1500 1500 1500 1500 1500 1500 1500 1500 1499 1499 1499 1499 1500 1500 1500 1500 1500 1500 1501 1501 1501 1502 1502 1503 1504 1504 1505 1505 1506 1506 1507 1507 1508 1508 1508 1509 1509 1509 1509 1510 1510 1511 1511 1511 1512 1512 1513 1513 1514 1514 1514 1514 1515
1497 1497 1497 1497 1497 1497 1498 1498 1498 1498 1498 1498 1498 1498 1498 1498 1498 1498 1498 1498 1498 1498 1498 1498 1498 1498 1498 1498 1498 1498 1498 1498 1499 1499 1499 1499 1499 1500 1501 1501 1502 1503 1503 1504 1504 1505 1505 1506 1506 1507 1507 1507 1507 1507 1508 1509 1509 1510 1510 1511 1511 1512 1512 1512 1513 1513 1513 1514 1514
1495 1495 1495 1495 1496 1496 1496 1496 1496 1496 1496 1497 1497 1497 1497 1497 1497 1497 1497 1497 1497 1497 1497 1497 1497 1497 1496 1496 1496 1497 1497 1497 1497 1497 1497 1498 1498 1498 1499 1500 1500 1501 1502 1502 1503 1504 1504 1505 1505 1505 1505 1505 1506 1506 1507 1507 1508 1509 1509 1510 1510 1511 1511 1511 1512 1512 1512 1512 1513
1494 1494 1494 1494 1494 1494 1494 1494 1494 1495 1495 1495 1495 1495 1495 1495 1495 1496 1496 1496 1495 1495 1495 1495 1495 1495 1495 1495 1495 1495 1495 1495 1495 1495 1496 1496 1496 1497 1497 1498 1499 1499 1500 1501 1502 1502 1503 1504 1504 1504 1504 1504 1504 1505 1506 1507 1507 1508 1508 1508 1509 1509 1510 1510 1511 1511 1511 1511 1511
1492 1492 1492 1493 1493 1493 1493 1493 1493 1494 1494 1494 1494 1494 1494 1494 1494 1494 1494 1494 1494 1494 1494 1494 1494 1494 1494 1494 1494 1494 1494 1494 1494 1494 1494 1494 1495 1495 1496 1497 1497 1498 1499 1499 1500 1501 1502 1502 1503 1503 1503 1503 1504 1504 1505 1506 1506 1507 1507 1507 1508 1508 1509 1509 1509 1509 1509 1510 1510
1491 1491 1491 1491 1491 1491 1492 1492 1492 1492 1493 1493 1493 1493 1493 1493 1493 1494 1494 1494 1494 1494 1494 1493 1493 1493 1493 1493 1493 1493 1493 1493 1493 1493 1493 1493 1494 1494 1495 1495 1496 1497 1498 1499 1499 1500 1500 1501 1501 1502 1502 1503 1503 1504 1504 1505 1505 1506 1506 1506 1507 1507 1507 1507 1508 1508 1508 1508 1508
1489 1489 1489 1490 1490 1490 1490 1491 1491 1491 1491 1492 1492 1492 1492 1492 1493 1493 1493 1493 1493 1493 1493 1492 1492 1492 1492 1492 1492 1492 1492 1492 1492 1492 1492 1493 1493 1494 1494 1494 1495 1496 1497 1498 1498 1499 1499 1500 1500 1501 1502 1502 1502 1503 1503 1504 1504 1505 1505 1505 1505 1505 1505 1506 1506 1506 1506 1506 1506
1488 1488 1488 1489 1489 1489 1489 1490 1490 1490 1490 1491 1491 1491 1491 1492 1492 1492 1492 1492 1492 1492 1492 1492 1492 1491 1491 1491 1491 1491 1491 1491 1491 1492 1492 1492 1493 1493 1494 1494 1495 1495 1496 1497 1498 1498 1499 1499 1500 1500 1501 1501 1501 1501 1502 1502 1503 1503 1504 1504 1504 1504 1504 1504 1504 1504 1505 1505 1505
1487 1487 1487 1488 1488 1489 1489 1489 1489 1489 1489 1490 1490 1490 1491 1491 1491 1491 1491 1491 1491 1491 1491 1491 1491 1491 1491 1490 1490 1490 1490 1491 1491 1491 1492 1492 1493 1493 1493 1494 1494 1495 1496 1497 1497 1498 1498 1499 1499 1499 1499 1499 1500 1500 1500 1501 1501 1502 1503 1503 1503 1503 1503 1503 1503 1503 1504 1504 1504
1486 1486 1487 1487 1488 1488 1488 1488 1488 1489 1489 1489 1489 1489 1490 1490 1490 1490 1490 1490 1490 1490 1490 1490 1490 1490 1490 1490 1490 1490 1490 1491 1491 1491 1492 1492 1493 1493 1494 1494 1494 1495 1496 1496 1497 1497 1497 1498 1498 1498 1498 1498 1499 1499 1499 1500 1500 1501 1501 1501 1501 1501 1501 1502 1502 1502 1503 1503 1503
1485 1486 1486 1487 1487 1487 1487 1487 1487 1488 1488 1489 1489 1489 1489 1489 1489 1489 1489 1489 1489 1489 1490 1490 1490 1490 1490 1490 1490 1490 1490 1491 1491 1491 1492 1492 1493 1493 1494 1494 1494 1495 1495 1496 1496 1496 1496 1496 1497 1497 1497 1498 1498 1498 1499 1499 1499 1499 1499 1500 1500 1500 1500 1501 1501 1501 1501 1502 1502
1485 1485 1486 1486 1486 1486 1486 1486 1487 1487 1488 1488 1488 1488 1488 1489 1489 1489 1489 1489 1489 1489 1489 1489 1489 1490 1490 1490 1490 1490 1490 1491 1491 1491 1492 1492 1492 1493 1493 1493 1494 1494 1495 1495 1495 1495 1495 1495 1495 1496 1496 1497 1497 1497 1498 1498 1498 1498 1499 1499 1499 1499 1500 1500 1500 1500 1500 1500 1500
1484 1484 1485 1485 1485 1485 1485 1485 1486 1487 1487 1487 1487 1487 1488 1488 1488 1488 1488 1489 1489 1489 1489 1489 1489 1489 1489 1489 1490 1490 1490 1490 1491 1491 1491 1491 1492 1492 1492 1493 1493 1493 1494 1494 1494 1494 1494 1494 1494 1495 1495 1496 1496 1496 1496 1497 1497 1497 1498 1498 1498 1499 1499 1499 1499 1499 1499 1499 1499
1484 1484 1484 1484 1484 1484 1484 1485 1485 1486 1486 1486 1486 1487 1487 1487 1487 1487 1487 1488 1488 1488 1488 1488 1488 1488 1489 1489 1489 1489 1489 1490 1490 1490 1490 1491 1491 1491 1492 1492 1492 1492 1492 1493 1493 1493 1493 1494 1494 1494 1494 1495 1495 1495 1495 1496 1496 1496 1497 1497 1497 1497 1497 1498 1498 1498 1498 1498 1499
1483 1483 1483 1483 1483 1484 1484 1484 1484 1485 1485 1485 1485 1486 1486 1486 1486 1486 1486 1486 1487 1487 1487 1487 1487 1488 1488 1488 1488 1488 1489 1489 1489 1489 1490 1490 1490 1491 1491 1491 1491 1491 1492 1492 1492 1492 1493 1493 1493 1494 1494 1494 1494 1494 1494 1495 1495 1495 1496 1496 1496 1496 1496 1497 1497 1497 1497 1497 1498
1482 1482 1483 1483 1483 1483 1483 1483 1484 1484 1484 1484 1484 1484 1485 1485 1485 1485 1485 1485 1485 1486 1486 1486 1486 1486 1487 1487 1487 1487 1488 1488 1488 1489 1489 1489 1489 1490 1490 1490 1490 1491 1491 1491 1491 1492 1492 1492 1492 1493 1493 1493 1493 1494 1494 1494 1494 1494 1495 1495 1495 1495 1496 1496 1496 1496 1497 1497 1497
1482 1482 1482 1482 1482 1482 1483 1483 1483 1484 1484 1484 1484 1484 1484 1484 1484 1484 1484 1484 1484 1484 1485 1485 1485 1485 1486 1486 1486 1487 1487 1487 1487 1488 1488 1489 1489 1489 1489 1489 1490 1490 1490 1490 1491 1491 1491 1491 1491 1492 1492 1492 1493 1493 1493 1494 1494 1494 1494 1494 1494 1495 1495 1495 1495 1496 1496 1496 1496
1481 1482 1482 1482 1482 1482 1482 1482 1483 1483 1483 1483 1483 1483 1483 1483 1483 1483 1483 1483 1483 1484 1484 1484 1484 1485 1485 1485 1485 1486 1486 1487 1487 1487 1488 1488 1488 1488 1489 1489 1489 1489 1489 1489 1489 1490 1490 1490 1491 1491 1491 1492 1492 1492 1493 1493 1493 1493 1494 1494 1494 1494 1494 1495 1495 1495 1495 1495 1495
1481 1481 1481 1482 1482 1482 1482 1482 1483 1483 1483 1483 1483 1483 1483 1482 1482 1482 1482 1482 1482 1483 1483 1483 1484 1484 1484 1484 1485 1485 1486 1486 1486 1487 1487 1487 1488 1488 1488 1488 1488 1488 1489 1489 1489 1489 1489 1490 1490 1491 1491 1491 1492 1492 1492 1493 1493 1493 1493 1494 1494 1494 1494 1494 1494 1494 1494 1494 1495
1480 1481 1481 1481 1481 1482 1482 1482 1482 1483 1482 1482 1482 1482 1482 1481 1481 1481 1481 1482 1482 1482 1483 1483 1483 1484 1484 1484 1485 1485 1485 1486 1486 1486 1487 1487 1487 1487 1487 1487 1488 1488 1488 1488 1489 1489 1489 1489 1490 1490 1491 1491 1491 1492 1492 1492 1493 1493 1493 1493 1493 1493 1493 1493 1494 1494 1494 1494 1494
1480 1480 1480 1481 1481 1481 1482 1482 1482 1482 1482 1481 1481 1481 1481 1481 1481 1481 1481 1481 1482 1482 1482 1483 1483 1483 1484 1484 1484 1485 1485 1485 1486 1486 1486 1486 1486 1486 1486 1487 1487 1488 1488 1488 1489 1489 1489 1489 1490 1490 1490 1491 1491 1491 1492 1492 1492 1492 1492 1493 1493 1493 1493 1493 1493 1493 1494 1494 1494
1479 1480 1480 1480 1481 1481 1481 1481 1481 1481 1481 1481 1480 1480 1480 1480 1481 1481 1481 1481 1482 1482 1482 1483 1483 1483 1484 1484 1484 1484 1485 1485 1485 1485 1485 1485 1485 1486 1486 1486 1487 1487 1488 1488 1488 1489 1489 1489 1489 1490 1490 1490 1491 1491 1491 1491 1492 1492 1492 1492 1492 1492 1492 1493 1493 1493 1493 1494 1494
1479 1479 1480 1480 1480 1480 1481 1481 1481 1481 1481 1480 1480 1480 1480 1480 1481 1481 1481 1481 1482 1482 1482 1482 1483 1483 1483 1484 1484 1484 1484 1484 1485 1485 1485 1485 1485 1486 1486 1486 1487 1487 1487 1488 1488 1488 1489 1489 1489 1489 1490 1490 1490 1490 1491 1491 1491 1491 1492 1492 1492 1492 1492 1492 1493 1493 1493 1494 1494
1479 1479 1479 1479 1480 1480 1480 1480 1480 1480 1480 1480 1480 1480 1480 1480 1480 1481 1481 1481 1482 1482 1482 1482 1482 1483 1483 1483 1484 1484 1484 1484 1484 1485 1485 1485 1485 1485 1486 1486 1486 1487 1487 1487 1488 1488 1488 1489 1489 1489 1489 1489 1490 1490 1490 1490 1491 1491 1491 1492 1492 1492 1492 1492 1492 1493 1493 1493 1494
1479 1479 1479 1479 1479 1479 1480 1480 1480 1480 1480 1480 1480 1480 1480 1480 1480 1480 1481 1481 1481 1482 1482 1482 1482 1482 1483 1483 1483 1483 1484 1484 1484 1484 1484 1484 1485 1485 1485 1485 1486 1486 1487 1487 1487 1488 1488 1488 1489 1489 1489 1489 1489 1490 1490 1490 1491 1491 1491 1491 1492 1492 1492 1492 1492 1492 1493 1493 1493
1478 1478 1478 1479 1479 1479 1479 1479 1479 1479 1479 1479 1479 1479 1479 1479 1479 1480 1480 1480 1481 1481 1481 1482 1482 1482 1482 1483 1483 1483 1483 1483 1484 1484 1484 1484 1484 1484 1485 1485 1485 1486 1486 1487 1487 1487 1488 1488 1488 1489 1489 1489 1489 1489 1490 1490 1491 1491 1491 1491 1492 1492 1492 1492 1492 1492 1492 1492 1492
1477 1478 1478 1478 1478 1479 1479 1479 1479 1479 1479 1479 1479 1479 1479 1479 1479 1479 1480 1480 1480 1481 1481 1481 1481 1482 1482 1482 1482 1482 1483 1483 1483 1483 1484 1484 1484 1484 1485 1485 1485 1486 1486 1486 1487 1487 1488 1488 1488 1489 1489 1489 1489 1489 1490 1490 1491 1491 1491 1491 1491 1491 1491 1491 1491 1491 1491 1491 1491
1477 1477 1477 1478 1478 1478 1478 1478 1479 1479 1479 1479 1479 1479 1479 1479 1479 1479 1479 1480 1480 1480 1480 1481 1481 1481 1481 1481 1482 1482 1482 1483 1483 1483 1483 1484 1484 1484 1484 1485 1485 1485 1486 1486 1487 1487 1487 1488 1488 1488 1489 1489 1489 1489 1490 1490 1491 1491 1491 1491 1491 1491 1491 1491 1491 1491 1491 1491 1490
1476 1476 1477 1477 1477 1477 1478 1478 1478 1478 1479 1479 1479 1479 1479 1479 1479 1479 1479 1479 1479 1479 1480 1480 1480 1481 1481 1481 1482 1482 1482 1483 1483 1483 1483 1484 1484 1484 1484 1485 1485 1485 1486 1486 1487 1487 1487 1488 1488 1488 1489 1489 1489 1489 1490 1490 1490 1491 1491 1490 1490 1490 1490 1490 1490 1490 1490 1490 1490
1476 1476 1476 1476 1477 1477 1477 1477 1478 1478 1478 1478 1479 1479 1478 1478 1479 1479 1479 1479 1479 1479 1479 1480 1480 1480 1481 1481 1481 1482 1482 1482 1483 1483 1483 1484 1484 1484 1484 1485 1485 1485 1486 1486 1487 1487 1487 1488 1488 1488 1489 1489 1489 1489 1490 1490 1490 1490 1490 1490 1489 1489 1489 1489 1489 1489 1489 1489 1489
1475 1475 1476 1476 1476 1477 1477 1477 1478 1478 1478 1478 1478 1478 1478 1478 1478 1479 1479 1479 1479 1479 1479 1480 1480 1480 1481 1481 1481 1481 1482 1482 1482 1483 1483 1484 1484 1484 1484 1485 1485 1485 1486 1486 1487 1487 1487 1488 1488 1489 1489 1489 1489 1489 1489 1489 1489 1489 1489 1489 1489 1489 1489 1489 1489 1489 1488 1488 1488
1474 1475 1475 1475 1476 1476 1476 1477 1477 1477 1478 1478 1478 1478 1478 1478 1478 1478 1479 1479 1479 1479 1479 1479 1480 1480 1480 1481 1481 1481 1482 1482 1482 1483 1483 1484 1484 1484 1484 1485 1485 1486 1486 1486 1487 1487 1488 1488 1488 1489 1489 1489 1489 1489 1489 1489 1489 1489 1488 1488 1488 1488 1488 1488 1488 1488 1488 1488 1488
Wind_Speed
20 20 20 20 20 20 20 21 21 21 21 22 22 22 23 23 23 24 24 25 25 26 26 27 27 28 29 29 30 31 32 33 33 34 34 35 35 35 35 34 34 33 33 32 31 30 29 28 26 25 24 23 22 21 21 23 25 26 25 22 20 20 21 22 21 19 17 16 15
20 20 20 20 20 20 20 20 20 20 21 21 21 22 22 22 22 22 22 23 23 23 23 23 23 24 24 24 25 26 27 28 29 29 30 30 30 30 30 29 29 29 28 28 27 27 26 26 25 25 24 22 21 20 21 23 25 25 22 20 21 22 22 21 19 16 14 14 14
20 20 20 20 20 20 20 20 20 20 21 21 21 22 22 22 23 23 22 22 23 22 22 22 22 22 22 22 22 23 23 24 24 25 25 25 25 25 25 25 24 24 24 24 24 24 24 24 24 23 23 21 20 20 21 23 24 23 21 20 21 20 18 16 14 13 12 14 15
20 20 20 21 21 21 21 20 20 21 21 21 22 22 23 23 23 23 23 23 23 23 23 22 22 22 22 22 21 21 21 21 21 22 22 22 22 22 22 22 21 21 21 22 22 22 22 22 22 21 21 20 19 19 21 23 23 22 20 20 19 17 13 11 10 11 13 15 17
20 21 21 21 21 21 21 21 21 21 21 22 22 22 23 23 23 24 24 24 24 23 23 23 23 23 23 22 22 21 21 21 21 21 21 21 21 21 21 20 20 20 20 21 21 21 21 21 20 20 19 18 18 19 21 23 22 20 19 20 18 15 12 11 11 13 15 17 19
21 21 21 22 22 22 22 22 22 22 22 22 22 22 23 23 23 23 24 24 24 24 24 24 24 23 23 23 23 22 22 21 21 21 21 21 21 21 20 20 19 19 20 20 21 21 20 20 19 19 18 17 18 19 20 21 20 19 19 19 17 14 13 13 14 15 17 19 20
21 21 22 22 22 22 22 22 22 22 22 22 22 22 22 23 23 23 23 23 24 24 24 24 24 24 23 23 23 23 22 22 22 21 21 21 21 21 20 20 19 19 19 19 20 19 19 19 18 17 17 17 18 19 19 19 18 18 18 17 16 14 14 14 15 17 19 21 20
22 22 22 22 22 22 22 23 23 23 22 22 22 22 22 22 22 23 23 23 23 23 23 23 23 24 23 23 23 23 22 22 22 21 21 21 21 21 20 20 19 19 19 18 18 18 18 17 17 17 16 17 17 18 19 19 18 17 16 15 15 14 14 15 16 18 20 22 21
23 23 22 22 22 22 22 22 22 22 22 22 22 22 22 22 22 22 22 22 22 23 23 23 23 23 23 23 23 23 22 22 21 21 21 21 21 21 20 20 19 18 18 17 17 16 16 16 16 16 17 17 17 19 19 19 18 17 15 15 14 14 14 15 16 18 20 21 21
22 22 22 22 22 22 21 22 22 22 22 22 22 22 22 22 21 21 21 21 21 21 21 22 22 22 22 22 22 22 21 21 21 20 20 20 20 20 20 19 18 17 17 16 16 15 15 15 16 16 17 18 18 19 20 19 18 16 15 14 14 13 13 14 15 18 19 20 19
22 22 21 21 21 21 21 21 21 21 21 21 21 21 21 20 20 20 20 20 20 20 20 20 20 20 20 20 20 20 19 19 19 18 18 18 18 18 19 18 18 17 16 16 15 15 15 15 16 17 18 19 20 19 19 18 16 15 13 13 12 11 11 12 15 17 18 18 18
21 21 21 20 20 20 20 20 20 20 20 20 19 19 19 18 18 18 18 18 18 18 18 18 18 17 17 17 17 17 17 17 17 16 16 16 16 16 17 17 17 17 16 16 15 15 15 15 17 18 20 21 20 19 18 16 15 14 14 13 12 11 11 12 15 17 17 17 17
20 20 20 20 20 19 19 19 19 18 18 17 17 17 17 16 16 16 17 17 17 17 16 16 16 16 15 15 15 15 15 15 15 14 14 14 15 15 16 16 17 17 16 16 16 16 16 16 17 19 20 19 18 16 15 14 14 14 15 14 13 11 11 13 15 17 18 18 17
19 19 19 19 19 18 18 17 16 16 15 15 15 15 15 15 15 15 15 15 15 15 15 15 15 15 14 14 14 14 14 14 13 13 13 13 14 15 15 16 16 16 16 16 16 16 16 16 17 17 17 16 14 13 13 14 14 14 14 14 13 12 13 14 16 18 19 20 19
18 18 18 17 17 16 15 14 14 13 13 13 13 13 13 14 14 14 14 14 14 13 13 14 14 14 14 13 13 13 13 13 12 12 12 13 13 14 14 15 15 15 15 15 15 15 15 15 16 15 14 13 13 13 13 14 14 14 14 13 12 12 13 15 17 19 20 20 19
16 16 16 16 15 14 13 12 11 11 11 11 12 12 12 12 12 12 12 12 12 12 12 12 12 12 12 12 12 12 11 11 11 11 10 10 11 11 11 11 11 11 11 11 11 12 13 14 14 14 14 14 14 13 13 13 14 15 15 15 14 14 14 16 18 19 19 18 16
15 15 14 14 13 11 10 9 9 9 10 10 11 11 11 10 10 10 10 10 10 10 9 9 9 9 9 9 9 8 8 7 6 6 6 6 6 7 7 7 8 8 8 8 9 11 13 14 14 14 14 14 13 12 12 13 14 16 16 16 15 15 15 16 16 16 15 15 15
12 12 12 11 10 8 8 8 8 9 9 10 9 9 8 8 8 8 7 7 7 7 6 6 5 5 5 6 5 4 3 2 2 2 2 3 3 4 4 5 6 6 7 8 10 12 13 14 13 13 11 10 9 9 10 12 14 16 17 16 14 13 13 13 13 13 13 13 13
10 10 9 8 7 7 7 8 9 9 9 8 7 6 6 6 6 5 5 5 5 4 3 3 3 3 3 3 3 2 2 1 1 2 2 3 3 4 4 5 6 6 7 9 11 12 12 11 10 9 9 9 10 11 13 14 16 16 15 13 11 11 11 11 12 12 12 12 12
9 8 7 5 6 7 8 9 9 7 5 5 4 4 4 5 4 4 3 3 3 2 2 2 2 2 2 2 3 3 3 3 3 4 4 5 5 6 7 7 8 8 9 11 11 11 10 9 9 10 11 13 14 15 15 15 15 13 11 10 9 10 10 11 11 11 11 10 10
9 7 6 5 6 7 9 10 8 4 2 3 4 4 4 4 3 2 2 2 2 3 4 4 4 4 3 3 4 5 6 6 6 7 7 8 9 9 10 10 11 11 11 11 10 9 8 9 10 12 13 14 15 15 14 13 11 10 9 9 9 9 9 9 9 9 9 9 9
8 7 7 7 8 10 11 11 8 5 4 6 7 7 7 7 5 4 4 5 6 7 7 7 7 7 6 6 6 6 6 7 7 7 8 8 9 10 10 11 10 10 9 8 8 8 9 9 11 12 13 13 13 12 11 10 9 8 8 8 8 8 8 8 8 8 8 9 9
8 8 8 9 10 11 12 11 9 7 6 8 9 9 10 10 9 7 6 7 9 9 9 8 8 7 7 8 8 7 7 6 6 6 7 7 8 8 8 8 8 8 8 8 8 8 8 9 10 10 11 10 9 9 8 8 7 7 6 6 6 6 7 7 8 8 9 9 9
8 9 8 7 7 7 8 8 7 7 8 10 11 11 12 13 12 11 10 11 11 11 10 9 9 8 8 8 8 8 8 8 8 8 8 8 8 8 8 8 8 8 8 8 8 8 8 8 8 8 8 7 7 7 6 6 5 5 5 5 6 6 7 7 8 8 9 9 9
9 7 5 2 2 2 3 4 6 6 7 8 8 9 11 13 14 15 15 15 14 14 13 12 11 11 10 10 10 10 10 10 10 10 10 9 9 9 9 9 9 9 9 8 8 8 8 8 7 6 6 5 5 5 5 5 5 5 5 6 7 7 7 8 8 8 8 8 8
8 5 2 1 2 2 2 2 3 3 3 3 4 5 5 7 11 14 16 17 16 16 15 14 14 14 14 13 13 13 12 12 11 10 9 9 9 9 9 9 9 9 8 8 7 7 7 7 6 5 5 4 4 4 4 5 5 6 6 7 7 7 7 7 7 7 7 7 7
7 4 3 3 3 2 0 1 1 1 2 4 6 8 8 7 7 9 12 14 15 15 15 16 15 14 13 12 11 10 9 9 8 8 8 8 8 8 8 8 8 8 7 7 6 6 6 5 5 5 5 5 5 5 5 5 6 6 7 7 7 7 6 6 6 6 6 6 6
5 5 4 4 2 1 1 0 1 2 5 6 8 9 9 8 6 5 6 8 10 11 11 11 11 10 9 7 7 6 6 6 6 7 7 7 7 7 7 7 7 6 6 6 6 5 5 5 5 5 5 5 5 6 6 6 6 6 6 6 6 5 5 5 5 5 5 5 5
6 6 5 4 3 2 2 1 3 5 6 8 9 9 8 6 4 3 4 4 5 6 7 7 7 7 6 7 6 6 6 6 6 6 6 6 6 6 6 6 5 5 5 5 5 6 6 6 6 6 6 6 6 6 6 6 6 6 5 5 5 5 4 4 4 4 4 4 4
6 6 5 4 4 3 2 3 4 6 7 6 6 5 4 3 3 4 5 6 6 7 7 7 7 7 6 6 6 5 5 5 5 5 5 4 5 5 5 4 4 4 5 5 6 6 6 6 6 6 6 6 5 5 5 5 5 5 5 5 4 4 4 4 4 4 3 3 3
6 5 4 4 4 3 3 4 5 5 4 3 2 3 4 4 5 5 6 6 6 6 6 6 6 6 5 5 5 5 4 4 4 3 3 4 4 4 4 4 4 4 5 5 6 6 6 6 6 5 5 5 4 4 4 4 4 4 4 4 4 4 4 3 3 3 3 3 3
6 5 5 4 4 4 4 4 3 3 2 2 3 4 4 5 5 5 6 6 6 5 5 5 5 5 5 4 4 4 3 3 3 3 3 4 4 5 4 4 4 4 4 5 5 6 6 5 5 5 4 4 4 4 4 4 4 4 4 4 4 3 3 3 3 3 3 3 3
6 6 5 5 5 4 4 3 2 2 2 1 2 2 3 3 4 4 4 4 4 5 5 5 5 4 4 4 3 3 3 3 3 3 3 4 4 4 4 4 3 3 4 4 5 5 5 5 5 4 4 4 4 4 4 4 3 3 3 4 4 4 3 3 3 3 3 3 3
6 6 6 5 4 4 3 3 2 2 1 1 1 1 1 2 2 3 3 3 4 4 4 4 4 4 3 3 3 3 3 3 3 3 3 3 4 4 4 3 3 3 3 4 4 4 4 4 4 4 4 4 4 4 4 3 3 3 4 4 4 4 4 4 4 3 3 3 4
6 5 5 4 4 4 3 3 2 2 2 2 2 2 1 1 2 2 3 4 4 4 4 4 4 3 3 3 3 3 4 4 4 4 3 3 3 3 3 2 2 3 3 3 4 4 4 4 4 4 4 4 4 4 4 4 4 4 4 4 4 4 4 3 3 3 4 4 5
5 5 5 5 4 4 3 3 2 2 2 3 3 3 3 2 2 2 3 4 4 5 4 4 4 3 3 3 3 4 4 4 4 4 3 3 3 3 3 3 3 3 3 3 3 3 3 4 4 4 4 4 4 4 4 4 4 4 4 4 4 4 3 3 4 4 5 5 6
6 6 6 5 5 4 3 3 3 3 2 2 3 4 4 3 2 2 3 4 4 4 4 4 4 4 4 4 4 4 4 4 4 4 3 3 3 3 3 3 3 3 3 3 3 4 4 4 4 5 5 5 5 5 4 4 4 4 4 4 4 4 4 4 4 4 5 5 6
8 7 7 6 5 5 4 4 4 4 3 3 3 3 3 3 2 2 3 3 4 4 4 4 4 4 4 4 4 4 4 4 4 3 3 4 4 4 4 4 4 4 4 4 4 4 5 5 5 5 5 5 5 4 4 4 4 4 4 4 4 4 3 4 4 4 5 5 6
9 9 8 7 6 6 6 6 5 4 3 3 3 3 3 3 2 2 3 4 4 4 4 4 4 4 4 4 3 3 3 4 4 4 4 5 5 5 5 5 4 4 4 5 5 5 5 6 6 5 5 5 4 4 4 4 5 5 4 4 3 3 3 3 4 4 5 5 6
11 10 9 8 8 8 7 6 5 4 4 3 3 3 3 3 3 3 4 4 4 4 4 4 5 4 4 3 3 2 3 4 5 5 5 6 6 6 6 5 5 5 5 6 6 6 6 6 5 5 5 4 4 4 4 5 4 4 4 3 3 3 3 4 4 5 5 6 6
11 11 10 9 9 9 8 7 5 5 4 4 4 3 3 4 4 4 4 4 4 4 4 5 5 4 4 3 3 3 4 4 5 6 6 6 6 6 6 6 6 6 6 6 6 6 6 5 5 5 5 4 4 4 4 4 4 3 3 3 3 3 4 5 5 6 6 6 7
Wind_Direction
264 264 264 265 265 266 267 269 270 271 272 273 274 274 275 275 275 275 275 275 274 274 273 272 271 270 269 267 266 265 264 263 263 262 263 263 263 264 264 265 265 265 265 265 264 264 263 262 261 259 258 258 257 258 261 265 262 258 256 259 268 271 268 262 256 250 245 245 250
265 265 266 266 267 268 269 270 272 273 274 275 275 276 277 277 277 277 277 276 276 276 275 275 274 273 272 270 269 267 266 265 265 264 264 264 264 264 265 265 264 264 263 262 262 261 260 258 257 256 256 256 256 256 259 260 258 254 254 261 267 266 260 253 247 243 241 243 247
266 267 268 269 269 270 270 271 272 272 273 274 275 275 275 276 276 275 275 274 274 274 275 274 274 274 273 272 271 269 268 268 267 266 266 265 265 265 265 265 264 263 262 261 259 258 257 255 254 254 254 254 254 256 259 259 256 253 253 256 256 253 248 244 240 238 239 243 246
267 268 269 270 271 271 271 272 272 272 272 272 273 273 273 274 274 273 273 273 273 273 273 273 273 273 272 272 271 270 269 268 267 266 266 265 265 265 264 264 263 262 260 258 257 256 254 253 252 252 252 252 254 257 260 259 255 251 248 248 246 243 239 237 237 238 240 243 245
267 268 269 271 271 272 272 272 272 272 271 271 271 272 272 272 272 272 272 272 272 272 273 273 272 272 272 271 271 270 270 269 267 266 265 264 263 263 263 262 261 260 258 256 255 254 253 252 251 250 250 251 253 256 258 256 251 248 247 246 244 239 232 231 233 237 240 244 246
267 268 269 271 271 272 273 273 273 272 272 271 271 271 271 271 272 272 272 273 273 273 273 272 272 272 272 272 271 271 270 269 267 265 264 262 261 260 259 258 258 256 255 254 254 253 252 251 250 249 249 249 251 253 255 254 251 250 249 247 242 235 229 228 231 236 241 245 247
267 268 269 270 271 272 273 273 273 273 273 272 272 271 271 271 272 272 272 273 273 273 272 272 272 272 272 272 271 271 270 269 267 265 262 260 258 256 255 254 254 254 253 252 252 251 250 250 249 248 248 248 249 251 252 251 250 250 250 248 241 233 228 229 232 237 242 245 247
268 269 269 270 270 271 272 273 273 273 273 273 272 272 272 272 272 273 273 273 273 273 273 272 272 272 272 271 271 271 270 269 268 266 263 259 256 253 252 252 251 251 251 251 250 250 249 249 248 248 247 248 249 250 247 242 240 241 243 243 238 233 231 233 237 242 245 248 247
270 270 270 270 270 271 271 272 272 272 272 272 272 272 273 273 273 274 274 274 274 274 274 273 273 272 272 272 272 271 271 270 269 267 264 260 256 252 250 249 250 250 250 249 249 248 249 249 249 248 248 248 249 248 245 241 240 239 237 235 233 233 236 240 244 249 251 251 249
271 271 271 271 271 271 271 271 271 271 271 271 272 272 272 273 274 274 275 275 275 275 275 275 274 274 273 273 272 272 272 271 270 269 266 262 256 252 249 248 248 249 249 249 248 247 248 249 250 251 250 249 247 245 244 245 246 245 241 238 237 240 244 248 252 253 254 252 249
272 272 272 272 272 272 272 272 271 271 271 271 271 272 272 273 274 275 276 276 277 277 276 276 276 276 275 274 273 272 271 270 269 268 265 261 256 251 248 247 247 247 248 247 245 245 246 248 250 251 251 247 244 243 244 247 249 249 247 245 246 250 255 257 255 253 251 250 248
273 272 272 272 272 272 272 272 272 272 271 271 271 272 272 273 273 274 275 276 277 277 278 278 278 277 277 276 274 272 270 268 266 264 261 257 252 248 245 244 244 244 244 244 243 243 244 246 248 249 248 246 245 246 248 249 251 250 248 247 250 257 261 260 255 252 251 251 252
272 271 271 271 271 271 271 272 272 272 271 271 271 271 271 272 272 273 275 276 277 278 279 279 279 278 277 275 273 270 267 264 261 258 254 250 246 243 241 240 240 240 240 241 241 240 241 243 245 247 247 247 248 251 253 253 250 244 239 236 241 247 254 256 257 258 260 261 263
270 269 269 269 270 270 270 271 271 270 270 269 269 269 269 270 271 272 274 276 277 278 279 279 278 278 276 274 272 269 264 260 256 252 248 244 241 239 237 236 236 236 237 238 239 239 239 240 242 246 249 253 256 258 258 255 249 242 235 231 231 236 242 250 258 263 266 268 269
268 267 266 267 267 267 267 267 267 266 266 265 265 266 267 269 270 272 274 275 276 277 277 278 278 278 276 274 271 266 261 257 252 247 243 241 239 236 235 234 235 235 236 237 238 238 237 238 240 245 250 254 255 252 249 248 247 244 239 235 236 238 243 249 256 261 264 266 266
264 264 263 263 263 263 262 262 261 261 261 262 263 264 266 268 270 272 273 274 274 275 276 278 278 278 277 274 269 264 258 254 250 246 243 240 239 238 236 235 235 236 237 239 240 239 237 237 239 241 242 240 235 231 229 232 237 240 241 243 246 249 252 254 256 258 261 262 262
261 261 261 261 260 259 258 257 256 257 258 260 263 265 266 268 270 271 272 272 273 274 275 277 277 279 278 275 271 265 260 258 257 255 251 248 247 244 241 236 233 234 237 240 240 236 232 230 230 230 228 224 220 218 220 225 234 240 246 251 254 256 257 257 258 258 258 257 256
259 259 259 258 257 255 253 251 251 252 255 259 262 265 266 266 266 267 268 269 270 269 270 272 276 279 284 287 284 280 278 284 282 273 259 251 247 244 237 230 227 227 230 232 230 226 222 219 218 219 220 223 228 233 237 241 246 251 254 257 258 258 258 257 257 255 253 252 251
258 257 257 256 253 250 247 248 250 255 261 267 266 268 271 270 268 265 266 269 270 269 268 274 285 298 309 315 316 318 316 305 259 234 225 227 232 232 230 227 226 226 228 228 226 222 218 216 218 225 238 251 259 261 261 259 258 258 258 257 256 255 254 253 251 249 248 249 252
260 259 256 249 248 249 251 253 255 262 275 283 276 274 273 271 266 262 263 270 277 272 258 256 267 285 303 305 297 286 275 263 243 228 224 226 230 231 232 232 232 230 228 227 225 223 222 226 235 246 256 261 264 265 264 262 260 258 255 251 249 248 247 246 245 245 247 250 256
264 262 249 234 235 242 250 255 254 251 247 252 246 247 248 242 230 219 221 230 228 212 202 200 201 204 212 229 247 251 249 245 237 231 229 230 231 232 232 231 230 227 224 223 226 231 237 242 245 249 253 257 259 259 258 256 251 246 242 239 238 238 239 241 244 248 252 257 262
268 262 250 239 235 239 246 253 248 233 219 231 233 234 233 230 226 215 205 209 212 209 205 203 202 203 205 210 222 231 236 236 234 233 233 234 234 233 231 227 223 221 223 229 240 248 251 250 248 248 248 248 247 245 241 236 230 227 227 229 231 235 240 244 250 255 260 264 267
263 265 262 256 248 247 249 251 242 227 221 232 235 232 231 236 240 237 226 221 222 224 224 224 222 219 217 215 216 221 226 231 236 239 239 238 237 236 233 229 228 230 237 247 253 254 252 247 242 239 235 230 226 221 217 214 214 218 226 235 241 247 251 256 260 263 266 267 267
255 268 274 267 256 252 249 243 225 215 221 233 238 235 233 237 242 245 243 239 238 240 244 247 245 241 236 233 229 227 226 227 231 235 237 237 236 236 236 238 240 243 245 246 243 237 229 223 219 215 211 207 204 203 205 208 216 227 240 250 256 261 265 266 266 267 266 265 263
258 271 278 269 245 237 230 215 204 209 226 243 250 246 239 237 240 244 247 247 247 250 254 257 258 257 256 255 250 244 238 234 232 230 229 230 231 232 234 236 236 235 231 225 216 208 201 196 192 189 190 193 198 206 213 220 230 242 251 258 263 266 269 270 268 263 260 257 255
267 267 242 200 223 235 218 186 183 198 235 278 307 305 278 252 243 242 244 246 247 249 252 255 258 260 260 258 254 248 243 238 233 227 222 218 220 222 223 220 217 211 203 195 190 185 182 180 179 181 188 199 212 223 231 236 241 247 252 259 264 266 266 265 261 256 253 250 250
264 243 206 209 235 249 244 103 90 318 297 296 311 314 308 292 266 248 242 242 243 245 246 249 251 252 251 247 240 233 228 225 219 213 207 205 206 206 204 199 194 188 183 178 176 175 176 178 182 190 200 210 221 231 239 243 245 248 252 257 261 262 259 255 251 249 247 247 248
237 213 205 217 225 208 135 124 286 291 292 291 290 290 288 284 276 256 238 232 232 233 233 233 232 229 221 209 197 191 190 190 190 191 190 190 189 187 185 182 179 177 176 176 177 179 183 188 195 202 210 217 224 231 238 243 247 250 252 254 253 250 245 241 240 241 243 246 247
208 205 206 208 204 193 194 234 270 281 283 281 276 271 269 267 254 225 202 192 188 186 182 178 178 171 161 154 154 160 167 173 177 180 180 181 180 180 178 176 176 178 182 184 186 189 193 198 203 210 216 222 227 232 238 242 246 247 245 242 238 234 230 229 231 234 238 242 244
200 204 206 202 198 202 223 255 270 276 277 272 260 245 229 200 171 161 158 155 152 148 146 143 140 138 139 142 149 158 166 173 177 179 182 185 186 187 187 188 187 189 192 195 196 197 199 203 209 215 220 226 230 234 238 239 239 237 233 228 225 223 223 225 227 229 232 234 233
202 204 201 194 193 210 237 250 255 258 257 242 191 158 144 137 137 142 145 145 143 140 138 137 137 140 146 152 158 165 173 180 186 194 202 208 209 209 208 207 207 203 202 201 201 201 202 206 210 216 222 226 229 231 233 232 230 226 223 219 218 217 218 220 220 220 220 219 218
205 206 205 206 214 228 240 243 235 223 201 165 142 136 136 137 137 137 138 139 138 139 142 146 150 154 159 165 172 180 189 199 207 218 226 229 229 228 225 224 220 212 205 201 199 198 200 203 208 213 216 218 220 221 223 222 220 217 214 212 210 208 207 207 207 207 207 208 211
213 218 222 228 233 234 229 215 195 181 177 168 157 153 153 153 150 148 145 145 149 153 158 162 165 168 173 179 188 201 213 223 230 235 239 241 240 239 238 235 227 213 200 195 193 194 196 200 203 207 207 208 208 208 208 207 207 204 203 201 198 196 195 197 199 202 205 213 223
229 232 235 234 227 217 201 185 180 193 222 243 239 216 194 187 185 181 179 177 177 179 180 181 182 184 189 197 210 224 237 244 248 249 248 245 245 245 244 240 224 203 191 187 189 192 195 199 201 201 199 197 196 193 192 190 191 193 194 194 193 193 194 198 205 212 222 235 248
236 237 235 225 213 200 189 185 195 226 262 282 298 306 304 270 229 213 205 202 202 201 201 200 202 205 211 221 233 244 252 256 259 257 250 242 239 239 235 228 204 189 184 181 186 190 194 196 194 192 189 185 181 177 176 176 181 187 192 195 197 199 205 214 226 239 252 263 271
239 237 229 217 207 200 199 209 225 249 275 300 316 321 320 312 279 231 214 210 211 212 214 214 216 219 223 231 241 251 257 262 264 258 247 227 213 205 200 197 185 178 176 175 179 183 186 186 182 179 174 170 167 165 168 173 182 189 197 202 208 217 226 239 251 263 273 280 285
242 240 229 217 211 212 221 239 252 263 281 310 321 320 314 308 295 239 211 209 213 218 223 224 225 227 231 236 244 254 261 262 260 252 235 212 191 178 173 175 170 167 165 166 167 169 170 169 166 163 160 157 159 163 170 180 190 199 208 217 227 237 247 258 266 275 282 287 293
243 243 236 226 223 228 242 254 261 268 283 306 315 310 303 294 282 233 204 204 212 223 232 234 235 238 242 247 255 260 259 251 242 229 212 194 177 167 161 160 159 158 159 158 158 159 159 158 155 153 153 155 161 171 183 195 206 216 225 232 241 249 259 270 279 286 292 296 301
241 244 241 236 236 242 250 257 264 273 286 299 305 302 293 279 261 228 207 206 209 221 233 240 243 246 252 258 262 259 249 234 217 202 189 176 168 162 156 152 151 153 155 155 154 154 154 154 153 153 157 164 175 188 201 214 222 229 235 241 249 261 274 283 292 297 302 305 309
239 242 241 239 240 245 251 257 264 273 281 288 292 288 274 261 246 232 220 216 215 221 230 238 247 254 260 260 252 235 224 218 203 192 181 171 166 161 156 151 150 152 154 153 153 153 155 156 157 161 168 179 191 203 214 223 230 235 242 253 265 281 291 297 301 306 310 311 312
238 241 241 239 240 244 250 257 265 271 274 274 274 268 257 248 242 237 229 224 224 229 236 243 253 258 259 247 223 202 197 198 195 187 179 171 165 160 157 154 153 154 155 155 155 158 161 165 169 175 183 192 202 211 221 230 235 242 255 273 286 295 303 307 310 312 314 315 314